Location: Canazei
(46.4667°N, 11.7667°E)
Time: 00:27:17
(UTC+00:00)

N. Korean satellite - Pass Details

Date: 03 October 2021
Orbit: 450 x 495 km, 97.3° (Epoch: 25 October)

Event Time Altitude Azimuth Distance (km) Brightness Sun altitude
Rises 04:27:32 0° 14° (NNE) 2,555 10.5 -8.9°
Reaches altitude 10° 04:29:37 10° 16° (NNE) 1,677 9.6 -8.5°
Maximum altitude 04:33:13 72° 101° (E) 520 6.9 -7.9°
Drops below altitude 10° 04:36:50 10° 187° (S) 1,682 9.2 -7.3°
Sets 04:38:54 0° 189° (S) 2,563 10.1 -6.9°
